Weather History for Pinedale, WY

Change the Weather History Date:

Thursday, February 21, 2013

  Actual Average (KBPI) Record (KBPI)
Temperature  
Mean Temperature 18 °F 17 °F  
Max Temperature 30 °F 31 °F 45 °F (1991)
Min Temperature 6 °F 2 °F -26 °F (1984)
Degree Days  
Heating Degree Days 47 48  
Month to date heating degree days 1083  
Since 1 July heating degree days 7196  
Cooling Degree Days 0 0  
Month to date cooling degree days 0  
Year to date cooling degree days 0  
Moisture  
Dew Point 11 °F    
Average Humidity 79    
Maximum Humidity 100    
Minimum Humidity 59    
Precipitation  
Precipitation 0.00 in 0.01 in 0.24 in (2006)
Month to date precipitation 0.26  
Year to date precipitation 0.57  
Sea Level Pressure  
Sea Level Pressure 29.77 in    
Wind  
Wind Speed 4 mph (WNW)    
Max Wind Speed 17 mph    
Max Gust Speed 17 mph    
Visibility 10 miles    
Events Snow    
T = Trace of Precipitation, MM = Missing Value Source: NWS Daily Summary

Daily Weather History Graph

Daily Weather History Graph

Search for Another Location

Airport:

Trip Planner

Search our weather history database for the weather conditions in past years. The results will help you decide how hot, cold, wet, or windy it might be!

Date:

Astronomy

Feb. 21, 2013 Rise Set
Actual Time 7:07 AM MST 5:59 PM MST
Civil Twilight 6:38 AM MST 6:27 PM MST
Nautical Twilight 6:05 AM MST 7:00 PM MST
Astronomical Twilight 5:32 AM MST 7:33 PM MST
Moon 2:13 PM MST (2/21) 4:17 AM MST (2/21)
Length of Visible Light 11h 49m
Length of Day
10h 51m
Waxing Gibbous, 84% of the Moon is Illuminated
Feb 21
Waxing Gibbous
Feb 25
Full
Mar 4
Last Quarter
Mar 11
New
Mar 19
First Quarter

Hourly Weather History & Observations

Time (MST) Temp. Windchill Dew Point Humidity Pressure Visibility Wind Dir Wind Speed Gust Speed Precip Events Conditions
12:15 AM 10.4 °F 4.0 °F 6.8 °F 85% 29.66 in 10.0 mi West 3.5 mph - N/A   Mostly Cloudy
12:35 AM 10.4 °F - 8.6 °F 92% 29.66 in 10.0 mi Calm Calm - N/A   Overcast
12:55 AM 10.4 °F 2.2 °F 6.8 °F 85% 29.66 in 10.0 mi WNW 4.6 mph - N/A   Mostly Cloudy
1:15 AM 10.4 °F - 6.8 °F 85% 29.67 in 10.0 mi Calm Calm - N/A   Mostly Cloudy
1:35 AM 10.4 °F - 5.0 °F 79% 29.67 in 10.0 mi Calm Calm - N/A   Scattered Clouds
1:55 AM 8.6 °F 0.1 °F 8.6 °F 100% 29.67 in 10.0 mi West 4.6 mph - N/A   Mostly Cloudy
2:15 AM 10.4 °F 0.8 °F 8.6 °F 92% 29.67 in 10.0 mi West 5.8 mph - N/A   Overcast
2:35 AM 10.4 °F 4.0 °F 8.6 °F 92% 29.67 in 10.0 mi WNW 3.5 mph - N/A   Overcast
2:55 AM 12.2 °F 6.1 °F 8.6 °F 85% 29.67 in 10.0 mi West 3.5 mph - N/A   Overcast
3:15 AM 10.4 °F 4.0 °F 8.6 °F 92% 29.67 in 10.0 mi West 3.5 mph - N/A   Overcast
3:35 AM 12.2 °F - 10.4 °F 92% 29.67 in 10.0 mi Calm Calm - N/A   Overcast
3:55 AM 12.2 °F 6.1 °F 10.4 °F 92% 29.67 in 10.0 mi NW 3.5 mph - N/A   Overcast
4:15 AM 12.2 °F 6.1 °F 8.6 °F 85% 29.67 in 10.0 mi WNW 3.5 mph - N/A   Overcast
4:55 AM 10.4 °F 4.0 °F 8.6 °F 92% 29.69 in 10.0 mi WNW 3.5 mph - N/A   Mostly Cloudy
5:15 AM 10.4 °F 0.8 °F 8.6 °F 92% 29.70 in 10.0 mi NW 5.8 mph - N/A   Overcast
5:35 AM 8.6 °F 2.0 °F 6.8 °F 92% 29.71 in 10.0 mi WNW 3.5 mph - N/A   Mostly Cloudy
5:55 AM 8.6 °F - 6.8 °F 92% 29.71 in 10.0 mi Calm Calm - N/A   Mostly Cloudy
6:15 AM 10.4 °F - 8.6 °F 92% 29.71 in 10.0 mi Calm Calm - N/A   Scattered Clouds
6:35 AM 8.6 °F -1.3 °F 5.0 °F 85% 29.72 in 10.0 mi East 5.8 mph - N/A   Scattered Clouds
6:55 AM 6.8 °F -4.8 °F 5.0 °F 92% 29.72 in 10.0 mi ESE 6.9 mph - N/A   Scattered Clouds
7:15 AM 8.6 °F - 6.8 °F 92% 29.74 in 10.0 mi Calm Calm - N/A   Scattered Clouds
7:35 AM 10.4 °F - 8.6 °F 92% 29.74 in 10.0 mi Calm Calm - N/A   Scattered Clouds
7:55 AM 10.4 °F 4.0 °F 8.6 °F 92% 29.75 in 10.0 mi ENE 3.5 mph - N/A   Clear
8:15 AM 10.4 °F - 8.6 °F 92% 29.77 in 10.0 mi Calm Calm - N/A   Mostly Cloudy
8:35 AM 12.2 °F - 10.4 °F 92% 29.77 in 7.0 mi Calm Calm - N/A   Overcast
8:55 AM 14.0 °F - 10.4 °F 86% 29.77 in 7.0 mi Calm Calm - N/A Snow Light Snow
9:15 AM 14.0 °F - 10.4 °F 86% 29.78 in 4.0 mi Calm Calm - N/A Snow Light Snow
9:35 AM 15.8 °F - 12.2 °F 86% 29.79 in 10.0 mi Calm Calm - N/A Snow Light Snow
9:55 AM 19.4 °F - 12.2 °F 74% 29.79 in 10.0 mi Calm Calm - N/A   Mostly Cloudy
10:15 AM 21.2 °F 16.4 °F 14.0 °F 74% 29.79 in 10.0 mi ENE 3.5 mph - N/A   Scattered Clouds
10:35 AM 19.4 °F 14.3 °F 14.0 °F 80% 29.79 in 10.0 mi East 3.5 mph - N/A   Mostly Cloudy
10:55 AM 21.2 °F - 15.8 °F 80% 29.79 in 7.0 mi Calm Calm - N/A Snow Light Snow
11:15 AM 21.2 °F 16.4 °F 15.8 °F 80% 29.80 in 7.0 mi East 3.5 mph - N/A Snow Light Snow
11:35 AM 23.0 °F 17.0 °F 17.6 °F 80% 29.80 in 7.0 mi ENE 4.6 mph - N/A Snow Light Snow
11:55 AM 23.0 °F 17.0 °F 17.6 °F 80% 29.80 in 7.0 mi East 4.6 mph - N/A Snow Light Snow
12:15 PM 24.8 °F 17.9 °F 17.6 °F 74% 29.79 in 10.0 mi ESE 5.8 mph - N/A Snow Light Snow
12:35 PM 23.0 °F - 17.6 °F 80% 29.79 in 7.0 mi Calm Calm - N/A Snow Light Snow
12:55 PM 26.6 °F 22.6 °F 17.6 °F 69% 29.79 in 5.0 mi East 3.5 mph - N/A Snow Light Snow
1:15 PM 26.6 °F - 17.6 °F 69% 29.79 in 10.0 mi Calm Calm - N/A   Overcast
1:35 PM 26.6 °F - 15.8 °F 64% 29.78 in 10.0 mi Calm Calm - N/A   Mostly Cloudy
1:55 PM 26.6 °F - 17.6 °F 69% 29.78 in 10.0 mi Calm Calm - N/A   Scattered Clouds
2:15 PM 26.6 °F - 17.6 °F 69% 29.77 in 10.0 mi Calm Calm - N/A   Scattered Clouds
2:35 PM 30.2 °F - 17.6 °F 60% 29.77 in 10.0 mi Calm Calm - N/A   Scattered Clouds
2:55 PM 28.4 °F 24.6 °F 17.6 °F 64% 29.77 in 10.0 mi WNW 3.5 mph - N/A   Clear
3:15 PM 28.4 °F 23.3 °F 17.6 °F 64% 29.77 in 10.0 mi NW 4.6 mph - N/A   Mostly Cloudy
3:35 PM 28.4 °F - 17.6 °F 64% 29.77 in 10.0 mi Calm Calm - N/A   Mostly Cloudy
3:55 PM 28.4 °F 19.7 °F 15.8 °F 59% 29.77 in 10.0 mi West 9.2 mph - N/A   Mostly Cloudy
4:15 PM 28.4 °F 20.4 °F 15.8 °F 59% 29.77 in 10.0 mi West 8.1 mph - N/A   Scattered Clouds
4:35 PM 28.4 °F 16.2 °F 15.8 °F 59% 29.77 in 10.0 mi WNW 17.3 mph - N/A   Mostly Cloudy
4:55 PM 28.4 °F 17.0 °F 15.8 °F 59% 29.77 in 10.0 mi NW 15.0 mph - N/A   Scattered Clouds
5:15 PM 26.6 °F 16.2 °F 14.0 °F 59% 29.78 in 10.0 mi WNW 11.5 mph 17.3 mph N/A   Scattered Clouds
5:35 PM 24.8 °F 13.4 °F 15.8 °F 69% 29.78 in 10.0 mi WNW 12.7 mph - N/A   Scattered Clouds
5:55 PM 23.0 °F 14.7 °F 14.0 °F 68% 29.79 in 10.0 mi West 6.9 mph - N/A   Mostly Cloudy
6:15 PM 21.2 °F 10.9 °F 14.0 °F 74% 29.79 in 10.0 mi West 9.2 mph - N/A   Mostly Cloudy
6:35 PM 19.4 °F 8.6 °F 12.2 °F 74% 29.80 in 10.0 mi West 9.2 mph - N/A   Scattered Clouds
6:55 PM 19.4 °F 7.9 °F 12.2 °F 74% 29.80 in 10.0 mi West 10.4 mph - N/A   Clear
7:15 PM 19.4 °F 7.9 °F 12.2 °F 74% 29.81 in 10.0 mi WNW 10.4 mph - N/A   Scattered Clouds
7:35 PM 17.6 °F 7.3 °F 10.4 °F 73% 29.82 in 10.0 mi WNW 8.1 mph - N/A   Scattered Clouds
7:55 PM 17.6 °F 6.4 °F 10.4 °F 73% 29.82 in 10.0 mi WNW 9.2 mph - N/A   Scattered Clouds
8:15 PM 17.6 °F 4.3 °F 10.4 °F 73% 29.82 in 10.0 mi WNW 12.7 mph - N/A   Scattered Clouds
8:35 PM 15.8 °F 2.1 °F 10.4 °F 79% 29.83 in 10.0 mi WNW 12.7 mph - N/A   Clear
8:55 PM 14.0 °F -0.8 °F 8.6 °F 79% 29.84 in 10.0 mi WNW 13.8 mph - N/A   Clear
9:15 PM 14.0 °F -0.8 °F 8.6 °F 79% 29.84 in 10.0 mi WNW 13.8 mph - N/A   Scattered Clouds
9:35 PM 12.2 °F -1.8 °F 6.8 °F 79% 29.85 in 10.0 mi WNW 11.5 mph - N/A   Scattered Clouds
9:55 PM 12.2 °F -1.8 °F 6.8 °F 79% 29.85 in 10.0 mi WNW 11.5 mph - N/A   Clear
10:15 PM 10.4 °F -2.4 °F 5.0 °F 79% 29.85 in 10.0 mi West 9.2 mph - N/A   Clear
10:35 PM 10.4 °F -3.3 °F 5.0 °F 79% 29.85 in 10.0 mi WNW 10.4 mph - N/A   Clear
10:55 PM 8.6 °F -1.3 °F 3.2 °F 79% 29.87 in 10.0 mi NW 5.8 mph - N/A   Clear
11:15 PM 8.6 °F -2.6 °F 3.2 °F 79% 29.87 in 10.0 mi NW 6.9 mph - N/A   Clear
11:35 PM 10.4 °F -2.4 °F 5.0 °F 79% 29.87 in 10.0 mi WNW 9.2 mph - N/A   Clear
11:55 PM 8.6 °F -3.7 °F 3.2 °F 79% 29.87 in 10.0 mi WNW 8.1 mph - N/A   Clear